Starlink 31977

operational
NORAD ID: 59892 Int'l Des: 2024-100 Owner: SPXS Country: US Constellation: starlink
LEOCIRCULAR

Starlink 31977について

説明を読み込み中...

リアルタイム位置

3D地球を読み込み中...

次回通過

高度履歴

Altitude vs Time

uPlot chart will show altitude changes over time

軌道要素

1 59892U 24100H 25308.16833846 .00000267 00000-0 19221-4 0 9991
2 59892 43.0033 107.0404 0000959 256.6881 103.3864 15.27578406 82047
Epoch: Nov 4, 2025 • Age: 5 hours

現在のステータス

高度 482.3 km
速度 7.63 km/s
衛星直下点 16.61°N, 81.97°E
打ち上げ日 May 28, 2024
運用期間 1.4 years
タイプ internet

技術仕様

分類 Payload
質量 730.00 kg
乾燥質量 700.00 kg
総質量 730.00 kg
長さ 0.30 m
直径 4.10 m
スパン 29.00 m
形状 Box + pan
製造者 SPXS
バスタイプ Starlink V2M
フェーズステータス In Orbit
所有者/国 SPXS/US

大規模コンステレーション

Loading constellations...